2020;12;2020.03.21.;0;0;27;3071930;2493;35830;88780;2625;40;48;59;60;64
2020;11;2020.03.14.;0;0;50;2095225;5450;20700;152366;1930;12;20;30;41;77
2020;10;2020.03.07.;0;0;27;3648470;3914;27105;125112;2210;37;52;54;81;89
2020;9;2020.02.29.;0;0;105;952080;8033;12940;208011;1325;13;15;17;23;37
2020;8;2020.02.22.;0;0;35;2496635;3839;23670;115117;2095;16;31;58;75;77
2020;7;2020.02.15.;0;0;41;2021030;3583;24050;105717;2165;28;41;52;57;86
2020;6;2020.02.08.;0;0;53;1467010;4098;19730;113633;1890;6;22;49;64;65
2020;5;2020.02.01.;0;0;36;2009445;3946;19065;110053;1815;5;18;63;76;80
2020;4;2020.01.25.;0;0;105;661245;6824;10580;149407;1285;3;8;23;51;56
2020;3;2020.01.18.;0;0;128;528295;5998;11725;127283;1465;18;23;56;57;73
2020;2;2020.01.11.;0;0;43;1525875;2989;22830;83854;2160;48;54;63;82;88
2020;1;2020.01.04.;0;0;84;706570;4944;13005;115977;1450;4;27;53;67;68
2019;52;2019.12.28.;0;0;24;2497955;1900;33655;64099;2180;31;44;46;71;84
2019;51;2019.12.21.;0;0;29;2181950;2567;26295;81398;1815;2;29;53;70;82
2019;50;2019.12.14.;0;0;64;1023155;3709;18830;91748;1665;28;34;54;62;84
2019;49;2019.12.07.;0;0;24;2426985;2872;21635;88499;1535;15;17;63;72;90
2019;48;2019.11.30.;0;0;49;1143120;3594;16625;92354;1415;9;15;29;49;83
2019;47;2019.11.23.;0;0;35;1605020;2850;21025;83273;1575;5;20;67;71;83
2019;46;2019.11.16.;0;0;37;1568425;3238;19115;92691;1460;17;19;37;61;70
2019;45;2019.11.09.;0;0;51;1109555;4134;14600;102129;1295;4;6;10;45;59
2019;44;2019.11.02.;0;0;32;1656205;2668;21190;86715;1425;11;12;49;64;68
2019;43;2019.10.26.;0;0;29;1859510;2443;23545;70794;1775;17;20;41;45;85
2019;42;2019.10.19.;0;0;75;747190;4702;12715;101559;1290;2;14;24;36;54
2019;41;2019.10.12.;0;0;26;2161330;2889;20750;83545;1570;9;29;56;70;82
2019;40;2019.10.05.;0;0;30;1797045;2257;25480;66812;1885;14;33;60;78;83
2019;39;2019.09.28.;0;0;14;3778065;2195;25705;64871;1900;14;31;39;41;71
2019;38;2019.09.21.;0;0;20;2628560;1926;29115;57296;2140;35;59;74;83;89
2019;37;2019.09.14.;0;0;21;2877880;1766;36505;62273;2265;40;62;63;75;83
2019;36;2019.09.07.;0;0;54;981215;4961;11390;101828;1215;4;10;21;45;81
2019;35;2019.08.31.;0;0;9;5398600;1705;30395;61942;1830;28;41;43;44;46
2019;34;2019.08.24.;0;0;30;1604515;2964;17325;81714;1375;4;12;16;39;90
2019;33;2019.08.17.;0;0;9;5709920;1827;30005;60335;1985;1;15;61;79;87
2019;32;2019.08.10.;0;0;14;3552690;2043;25970;63637;1825;24;37;40;43;50
2019;31;2019.08.03.;0;0;23;2094955;2602;19755;75034;1500;15;21;67;75;81
2019;30;2019.07.27.;0;0;20;2384650;2115;24055;63270;1760;16;25;26;50;75
2019;29;2019.07.20.;0;0;31;1559640;2911;17715;85871;1315;12;21;24;33;88
2019;28;2019.07.13.;0;0;50;1005805;3772;14220;96948;1210;1;6;27;28;54
2019;27;2019.07.06.;0;0;22;2166530;2310;22010;66809;1665;27;32;37;73;85
2019;26;2019.06.29.;1;1154615510;79;650510;4986;10995;105724;1135;4;10;24;55;77
2019;25;2019.06.22.;0;0;39;1309040;3454;15765;90518;1315;1;12;16;43;56
2019;24;2019.06.15.;0;0;31;1655700;2487;22015;71240;1680;22;28;59;72;89
2019;23;2019.06.08.;0;0;19;2699135;1793;30510;57866;2070;26;31;35;65;87
2019;22;2019.06.01.;0;0;27;1819380;2497;20985;74266;1545;1;23;29;58;84
2019;21;2019.05.25.;0;0;32;1558880;2953;18020;76348;1525;22;33;47;51;66
2019;20;2019.05.18.;0;0;35;1496290;3069;18200;82578;1480;1;15;25;46;63
2019;19;2019.05.11.;0;0;23;2281700;2253;24845;66872;1830;6;22;71;88;90
2019;18;2019.05.04.;0;0;27;1865265;2310;23255;68400;1720;11;30;36;67;83
2019;17;2019.04.27.;0;0;17;2948070;2016;26515;70300;1665;1;14;68;75;76
2019;16;2019.04.20.;1;4194319530;50;1732680;4097;22555;123044;1645;14;21;53;60;90
2019;15;2019.04.13.;0;0;47;1886015;4432;21335;129240;1600;6;27;31;47;84
2019;14;2019.04.06.;0;0;32;2628580;3504;25605;113939;1725;17;45;53;86;87
2019;13;2019.03.30.;0;0;63;1246710;4478;18710;121441;1510;15;20;22;28;65
2019;12;2019.03.23.;0;0;88;879555;6525;12655;152208;1185;7;17;42;53;76
2019;11;2019.03.16.;0;0;58;1353690;5435;15410;139732;1310;4;13;58;74;79
2019;10;2019.03.09.;0;0;51;1514515;5528;14905;147024;1225;3;27;72;75;78
2019;9;2019.03.02.;0;0;47;1534100;2966;25930;84771;1985;32;55;61;73;88
2019;8;2019.02.23.;0;0;51;1396675;3704;20515;107556;1545;11;27;46;48;87
2019;7;2019.02.16.;0;0;26;2787525;2485;31110;95180;1775;37;38;58;59;68
2019;6;2019.02.09.;0;0;101;700340;6329;11920;133587;1235;2;8;18;25;65
2019;5;2019.02.02.;0;0;68;981835;4956;14370;111953;1390;8;24;38;68;78
2019;4;2019.01.26.;0;0;42;1506625;2410;28005;74812;1975;45;67;79;86;88
2019;3;2019.01.19.;0;0;37;1658750;3723;17585;99859;1435;3;17;34;50;89
2019;2;2019.01.12.;0;0;51;1135060;3601;17145;98836;1365;5;7;36;76;82
2019;1;2019.01.05.;0;0;53;968565;3906;14020;94578;1265;4;8;25;57;65
2018;52;2018.12.29.;0;0;71;752240;4252;13400;103885;1200;3;18;43;55;74
2018;51;2018.12.22.;0;0;27;2019215;2708;21475;77776;1635;16;26;28;46;49
2018;50;2018.12.15.;0;0;81;672875;5141;11310;112476;1130;4;7;47;53;75
2018;49;2018.12.08.;0;0;30;1797005;2828;20335;76602;1640;1;25;26;50;66
2018;48;2018.12.01.;0;0;37;1323055;2918;17895;74651;1530;24;45;54;65;76
2018;47;2018.11.24.;0;0;46;1047310;3324;15460;87482;1285;12;19;20;43;61
2018;46;2018.11.17.;0;0;21;2385350;2086;25615;73362;1595;3;64;73;78;84
2018;45;2018.11.10.;0;0;24;2033855;2566;20290;80330;1420;15;18;22;33;90
2018;44;2018.11.03.;0;0;7;6568585;1169;41955;49189;2180;15;70;76;77;87
2018;43;2018.10.27.;0;0;41;1117295;3374;14480;86076;1240;3;8;49;68;76
2018;42;2018.10.20.;0;0;88;539380;5010;10105;100094;1105;9;13;27;81;87
2018;41;2018.10.13.;0;0;42;1165300;2861;18245;72894;1565;9;20;44;50;70
2018;40;2018.10.06.;0;0;36;1294830;3164;15715;79744;1365;6;22;28;42;49
2018;39;2018.09.29.;0;0;49;917925;3053;15715;82841;1265;13;25;35;39;44
2018;38;2018.09.22.;1;1846186825;25;2156195;2766;20790;80865;1555;38;43;48;53;69
2018;37;2018.09.15.;0;0;34;1592600;2615;22085;72302;1745;14;28;30;52;84
2018;36;2018.09.08.;0;0;55;946870;3967;14005;101483;1195;1;3;43;67;68
2018;35;2018.09.01.;0;0;38;1327780;2933;18350;76163;1545;4;12;31;59;61
2018;34;2018.08.25.;0;0;15;3316030;1869;28390;65065;1785;28;29;48;65;86
2018;33;2018.08.18.;0;0;35;1495330;3284;17000;90840;1575;7;27;42;66;80
2018;32;2018.08.11.;0;0;61;842830;3794;17090;85480;1990;17;37;43;66;68
2018;31;2018.08.04.;0;0;56;875865;3284;15930;82234;2000;4;27;30;41;56
2018;30;2018.07.28.;0;0;14;3431260;1519;33735;56747;1975;1;42;48;86;88
2018;29;2018.07.21.;0;0;26;1861980;3154;16375;89431;1265;10;13;15;31;38
2018;28;2018.07.14.;0;0;66;855715;4789;12580;104253;1265;4;12;24;68;84
2018;27;2018.07.07.;0;0;43;1137705;2776;18800;74587;1530;4;17;46;78;83
2018;26;2018.06.30.;0;0;28;1862920;3255;17095;79779;1525;19;41;43;61;75
2018;25;2018.06.23.;0;0;18;2866745;2122;25940;67394;1785;21;32;61;65;77
2018;24;2018.06.16.;0;0;9;5389970;1406;36800;53472;2865;38;39;40;73;83
2018;23;2018.06.09.;0;0;25;1889950;2405;20955;71412;1545;20;21;25;39;57
2018;22;2018.06.02.;1;1667298070;57;972880;4044;14625;105597;1225;10;13;26;64;67
2018;21;2018.05.26.;0;0;21;2616725;2252;26030;68249;1880;15;26;51;74;89
2018;20;2018.05.19.;0;0;17;3176815;2865;20105;84152;1495;3;43;59;62;69
2018;19;2018.05.12.;0;0;29;1890800;2939;19900;85124;1505;4;18;56;71;80
2018;18;2018.05.05.;0;0;57;897395;4154;13135;97329;1225;5;11;18;67;89
2018;17;2018.04.28.;0;0;72;837555;4869;13210;112402;1250;11;23;37;55;72
2018;16;2018.04.21.;0;0;37;1612125;4325;14710;106768;1305;4;14;27;63;65
2018;15;2018.04.14.;0;0;52;1084695;3589;16765;95849;1375;19;27;31;37;81
2018;14;2018.04.07.;0;0;18;2719175;1778;29365;60226;1895;25;36;38;79;84
2018;13;2018.03.31.;0;0;30;1610610;3197;16120;87492;1290;13;14;16;29;43
2018;12;2018.03.24.;0;0;26;1845470;2399;21335;66046;1695;22;28;31;49;78
2018;11;2018.03.17.;0;0;28;1746055;2363;22070;73705;1550;1;23;42;62;71
2018;10;2018.03.10.;0;0;10;4847945;1575;32835;57271;1975;12;60;67;70;85
2018;9;2018.03.03.;0;0;16;2887835;1669;29530;53537;2015;28;50;77;78;85
2018;8;2018.02.24.;1;906255450;28;1805920;3212;16790;85480;1380;9;11;32;40;55
2018;7;2018.02.17.;0;0;11;4798280;1836;30665;67673;1820;10;32;42;43;46
2018;6;2018.02.10.;0;0;11;4686610;1514;36320;62884;1915;59;64;67;73;74
2018;5;2018.02.03.;0;0;31;1595770;2683;19665;74773;1545;3;20;53;79;88
2018;4;2018.01.27.;0;0;13;3771920;2126;24600;63219;1810;39;40;68;72;73
2018;3;2018.01.20.;0;0;28;1761680;2663;19760;82764;1390;1;5;34;45;46
2018;2;2018.01.13.;0;0;29;1713405;2160;24540;62840;1845;15;45;62;78;79
2018;1;2018.01.06.;0;0;31;1529010;2809;18000;72216;1530;17;24;37;49;82
2017;52;2017.12.30.;1;687070585;45;1191295;3899;14665;94092;1330;1;8;17;50;77
2017;51;2017.12.23.;0;0;17;3148780;1870;30535;66420;1880;55;67;70;71;73
2017;50;2017.12.16.;0;0;24;2083960;2401;22220;69609;1675;1;4;31;40;83
2017;49;2017.12.09.;0;0;33;1513440;2745;19405;70825;1645;16;39;42;45;78
2017;48;2017.12.02.;0;0;29;1652385;3194;16005;89369;1250;1;3;23;58;70
2017;47;2017.11.25.;0;0;20;2405205;2458;20875;72851;1540;1;20;26;54;55
2017;46;2017.11.18.;1;1428694065;27;2172945;2433;25720;74987;1825;1;16;47;61;75
2017;45;2017.11.11.;0;0;36;1623870;3022;20635;84922;1605;5;18;47;61;85
2017;44;2017.11.04.;0;0;66;820705;3413;16930;82598;1530;18;22;50;54;79
2017;43;2017.10.28.;0;0;34;1548235;2279;24640;64103;1915;15;41;50;71;76
2017;42;2017.10.21.;0;0;45;1172440;2672;21060;72381;1700;5;32;47;62;88
2017;41;2017.10.14.;0;0;49;1153560;3858;15630;94133;1400;1;21;35;42;90
2017;40;2017.10.07.;0;0;20;2498745;2106;25310;65976;1765;8;38;62;69;70
2017;39;2017.09.30.;0;0;11;4430005;1626;31965;58139;1955;10;18;83;87;89
2017;38;2017.09.23.;0;0;19;2587980;2112;24835;60124;1910;14;58;59;78;85
2017;37;2017.09.16.;0;0;11;4679010;2052;26755;63976;1875;34;43;51;67;80
2017;36;2017.09.09.;0;0;71;703030;4181;12735;89310;1305;18;23;54;63;82
2017;35;2017.09.02.;0;0;16;2989110;1751;29135;57057;1955;27;31;47;87;89
2017;34;2017.08.26.;1;3024303035;20;3203900;2317;29500;78419;1905;34;36;59;69;90
2017;33;2017.08.19.;0;0;130;487575;7674;8810;160229;925;3;7;19;39;50
2017;32;2017.08.12.;0;0;29;2163310;3360;19915;95800;1530;21;33;68;75;89
2017;31;2017.08.05.;0;0;52;1148295;4485;14200;114226;1220;7;8;25;29;76
2017;30;2017.07.29.;0;0;9;6556185;1974;31885;68127;2020;39;46;47;78;85
2017;29;2017.07.22.;0;0;12;4831440;1768;34980;64020;2115;22;30;35;61;71
2017;28;2017.07.15.;0;0;53;1114215;4051;15550;99666;1385;1;9;25;73;89
2017;27;2017.07.08.;0;0;64;891425;3965;15350;93535;1425;33;54;66;68;72
2017;26;2017.07.01.;0;0;52;1058905;3008;19525;82816;1550;7;31;34;55;60
2017;25;2017.06.24.;0;0;37;1475940;3209;18150;89678;1420;5;9;52;59;85
2017;24;2017.06.17.;0;0;31;1865175;3144;19615;83772;1610;21;43;62;66;84
2017;23;2017.06.10.;0;0;17;3288740;2294;25995;74116;1760;6;44;46;55;81
2017;22;2017.06.03.;0;0;25;2147045;2831;20225;76682;1635;21;53;59;71;86
2017;21;2017.05.27.;0;0;32;1659520;3018;18770;82209;1505;15;24;35;53;71
2017;20;2017.05.20.;0;0;17;3113255;1617;34915;62757;1970;48;56;58;65;70
2017;19;2017.05.13.;0;0;35;1598070;3094;19285;92772;1405;5;34;45;54;55
2017;18;2017.05.06.;0;0;24;2197915;2368;23760;73282;1680;6;7;46;65;88
2017;17;2017.04.29.;0;0;17;2988055;2441;22195;75080;1580;5;31;41;44;63
2017;16;2017.04.22.;0;0;20;2466690;2000;26310;67509;1705;47;48;56;67;90
2017;15;2017.04.15.;0;0;21;2508940;1565;35910;51560;2385;58;59;71;85;89
2017;14;2017.04.08.;0;0;50;1029430;2665;20600;68755;1745;14;43;49;76;85
2017;13;2017.04.01.;0;0;34;1439890;2979;17530;82401;1385;7;12;32;38;82
2017;12;2017.03.25.;0;0;23;2298325;2349;24005;81846;1505;2;3;35;41;79
2017;11;2017.03.18.;0;0;23;2319805;2323;24500;75510;1650;1;4;59;65;85
2017;10;2017.03.11.;1;1902805560;32;2249765;3863;19880;112661;1490;1;4;40;49;67
2017;9;2017.03.04.;0;0;31;1969560;3634;17920;105866;1345;3;28;37;44;46
2017;8;2017.02.25.;0;0;36;1636895;3519;17860;106065;1295;10;12;13;64;79
2017;7;2017.02.18.;0;0;17;3560010;1574;41015;59749;2365;51;61;64;74;79
2017;6;2017.02.11.;0;0;81;740025;5521;11580;139154;1005;3;5;13;62;87
2017;5;2017.02.04.;0;0;14;3941810;2017;29185;67431;1910;4;39;49;60;62
2017;4;2017.01.28.;0;0;48;1122000;5324;10790;119333;1055;3;19;64;66;77
2017;3;2017.01.21.;0;0;29;1823190;2273;24810;68098;1810;17;20;59;78;81
2017;2;2017.01.14.;0;0;31;1870930;3580;17280;105191;1285;3;6;67;72;76
2017;1;2017.01.07.;0;0;43;1192020;3434;15920;88562;1350;9;11;43;57;88
2016;52;2017.01.01.;0;0;32;1845885;2709;23260;83890;1645;25;42;45;52;86
2016;51;2016.12.23.;0;0;17;2845225;2120;24335;61966;1820;8;35;60;67;84
2016;50;2016.12.17.;0;0;10;5000815;1610;33130;61802;1890;26;27;30;73;85
2016;49;2016.12.10.;0;0;35;1425650;2663;19985;73057;1595;10;14;25;51;71
2016;48;2016.12.03.;0;0;13;3732370;2230;23210;72263;1565;7;63;69;76;85
2016;47;2016.11.26.;1;892375285;18;2867950;2082;26450;67633;1780;33;43;58;60;77
2016;46;2016.11.19.;0;0;61;871040;5274;10745;124209;1000;8;9;19;37;43
2016;45;2016.11.12.;0;0;42;1262915;3333;16975;87464;1415;1;11;45;67;78
2016;44;2016.11.05.;0;0;29;1723080;2559;20675;76094;1350;7;53;65;73;87
2016;43;2016.10.29.;0;0;23;2199735;1967;27235;63735;1635;53;55;67;79;80
2016;42;2016.10.22.;0;0;37;1374070;2803;19205;72848;1435;14;34;43;52;78
2016;41;2016.10.15.;0;0;50;1054195;3051;18290;81082;1340;17;22;47;73;90
2016;40;2016.10.08.;0;0;35;1450860;3193;16840;81843;1275;23;36;38;57;76
2016;39;2016.10.01.;0;0;19;2531650;2214;23005;68892;1435;1;23;37;49;60
2016;38;2016.09.24.;1;538536140;25;2064845;2544;21485;73287;1450;8;29;59;77;89
2016;37;2016.09.17.;0;0;74;721245;4054;13940;96620;1135;1;9;17;18;89
2016;36;2016.09.10.;0;0;27;1948020;2271;24520;71904;1505;9;16;78;83;86
2016;35;2016.09.03.;0;0;60;838020;3941;13510;98414;1050;4;13;47;76;78
2016;34;2016.08.27.;0;0;48;1042055;2700;19615;73192;1405;22;29;53;62;74
2016;33;2016.08.20.;0;0;6;7880110;1131;44265;46062;2115;39;41;46;47;60
2016;32;2016.08.13.;1;573765355;40;1407460;4358;13680;116994;990;13;14;21;34;84
2016;31;2016.08.06.;0;0;22;2413885;2445;23000;80415;1360;15;24;27;29;40
2016;30;2016.07.30.;0;0;21;2489370;1987;27855;64433;1670;16;55;60;67;76
2016;29;2016.07.23.;0;0;11;4631210;1605;33605;54209;1935;32;43;60;74;79
2016;28;2016.07.16.;0;0;13;4041000;1732;32115;59733;1810;10;42;60;78;82
2016;27;2016.07.09.;0;0;15;3431790;1862;29270;60128;1765;40;47;52;57;83
2016;26;2016.07.02.;3;356532130;216;255160;8671;6730;136140;835;1;9;11;19;41
2016;25;2016.06.25.;0;0;29;1894895;3277;17755;80563;1405;29;54;63;78;83
2016;24;2016.06.18.;0;0;22;2572455;3019;19850;81331;1435;2;39;69;72;74
2016;23;2016.06.11.;0;0;51;1135310;3979;15410;109198;1090;3;7;32;41;58
2016;22;2016.06.04.;0;0;45;1204000;1940;29570;61830;1805;22;42;62;82;84
2016;21;2016.05.28.;0;0;34;1574275;3080;18400;85366;1290;4;27;41;72;88
2016;20;2016.05.21.;0;0;19;2898540;2494;23380;82121;1380;9;10;36;50;78
2016;19;2016.05.14.;0;0;47;1335815;3078;21595;90641;1425;6;18;51;59;64
2016;18;2016.05.07.;0;0;27;1962430;2619;21420;76790;1420;22;24;43;64;90
2016;17;2016.04.30.;0;0;20;2589425;2009;27295;68627;1555;43;45;56;66;82
2016;16;2016.04.23.;0;0;59;867925;4222;12840;90446;1165;24;36;44;63;68
2016;15;2016.04.16.;1;783562710;42;1400670;3494;17825;91530;1325;8;33;57;62;66
2016;14;2016.04.09.;0;0;55;1048870;4051;15080;100024;1185;5;22;25;67;87
2016;13;2016.04.02.;0;0;42;1275090;3017;18795;89284;1235;1;23;27;42;84
2016;12;2016.03.26.;0;0;24;2312945;2466;23835;68958;1655;16;38;54;84;90
2016;11;2016.03.19.;0;0;42;1273500;3342;16945;84873;1295;15;36;45;58;72
2016;10;2016.03.12.;0;0;38;1498460;3048;19780;79578;1475;28;30;35;56;84
2016;9;2016.03.05.;0;0;22;2506310;1742;33515;61425;1850;38;39;52;79;85
2016;8;2016.02.27.;0;0;26;2033510;3115;17970;81826;1330;27;35;51;57;59
2016;7;2016.02.20.;1;467849960;22;2595460;2904;20820;86952;1350;24;43;44;48;58
2016;6;2016.02.13.;0;0;29;2039795;3344;18730;97329;1250;11;15;23;43;87
2016;5;2016.02.06.;0;0;30;1910065;2955;20530;86050;1370;11;15;26;39;78
2016;4;2016.01.30.;0;0;16;3384925;1729;33165;60555;1840;48;55;62;69;80
2016;3;2016.01.23.;1;1496723740;46;1481290;3797;19000;107680;1305;11;27;55;68;80
2016;2;2016.01.16.;0;0;36;1909780;3963;18370;119122;1455;7;18;53;54;85
2016;1;2016.01.09.;0;0;25;2442905;2916;22175;88545;1420;3;50;52;59;74
2015;53;2016.01.02.;0;0;49;1330075;3612;19105;99691;1345;27;30;35;56;68
2015;52;2015.12.26.;0;0;60;943155;4354;13760;110681;1055;3;9;38;42;85
2015;51;2015.12.19.;0;0;21;2873360;2160;29580;76293;1945;15;21;78;87;89
2015;50;2015.12.12.;0;0;24;2477585;2346;26835;77042;1590;34;38;45;62;90
2015;49;2015.12.05.;0;0;53;1099160;3810;16190;96456;1245;22;24;35;63;68
2015;48;2015.11.28.;0;0;21;2670505;2403;24710;75831;1525;9;50;72;76;89
2015;47;2015.11.21.;0;0;23;2478740;2515;24000;69459;1690;31;53;57;60;83
2015;46;2015.11.14.;0;0;33;2088280;3514;20765;102154;1585;10;25;38;46;50
2015;45;2015.11.07.;0;0;19;2973970;1714;34905;64445;1805;41;45;51;54;86
2015;44;2015.10.31.;0;0;27;1970280;2661;21170;76792;1425;18;24;30;43;79
2015;43;2015.10.24.;0;0;58;892550;3073;17835;78001;1365;2;18;45;51;70
2015;42;2015.10.17.;1;1786189915;88;747435;6310;11035;141579;955;2;5;17;24;72
2015;41;2015.10.10.;0;0;42;1548785;3202;21510;83934;1595;14;54;60;78;81
2015;40;2015.10.03.;0;0;44;1409885;4599;14280;116302;1100;5;10;23;51;58
2015;39;2015.09.26.;0;0;19;3206220;2124;30370;74209;1690;10;57;70;75;87
2015;38;2015.09.19.;0;0;70;903325;4400;15215;103387;1260;4;38;42;64;74
2015;37;2015.09.12.;0;0;30;2129870;2737;24720;83686;1570;8;50;69;72;87
2015;36;2015.09.05.;0;0;22;2708425;2287;27585;72332;1905;20;26;38;41;58
2015;35;2015.08.29.;0;0;27;2127820;2900;20975;85643;1380;1;19;70;80;81
2015;34;2015.08.22.;0;0;23;2440620;2160;27515;69909;1655;17;20;32;76;84
2015;33;2015.08.15.;0;0;34;1682700;3440;17610;98464;1195;2;13;67;70;86
2015;32;2015.08.08.;0;0;28;2015925;2437;24525;78307;1485;33;52;67;77;87
2015;31;2015.08.01.;0;0;26;2137970;2696;21830;79316;1445;3;32;50;59;65
2015;30;2015.07.25.;0;0;42;1299130;2727;21185;78300;1435;3;34;46;62;79
2015;29;2015.07.18.;0;0;38;1487680;3562;16805;104090;1120;2;5;37;57;67
2015;28;2015.07.11.;0;0;33;1743280;3193;19075;94999;1350;10;18;26;36;38
2015;27;2015.07.04.;0;0;12;4532965;1373;41950;53345;2100;1;48;61;62;79
2015;26;2015.06.27.;0;0;44;1238660;3084;18710;88754;1265;19;30;43;58;69
2015;25;2015.06.20.;2;157018845;29;2005680;2664;23120;82801;1445;27;29;47;59;89
2015;24;2015.06.13.;0;0;55;1094305;4336;14695;114733;1080;3;26;28;42;49
2015;23;2015.06.06.;0;0;17;3506065;2008;31430;69579;1765;15;16;36;60;70
2015;22;2015.05.30.;1;5049127895;52;2165720;5533;21550;162929;1425;18;55;56;83;90
2015;21;2015.05.23.;0;0;64;1715340;5929;19605;163245;1485;12;25;30;46;51
2015;20;2015.05.16.;0;0;80;1348730;7766;14710;205116;1085;1;19;20;27;34
2015;19;2015.05.09.;0;0;97;1089310;6831;16380;169939;1280;18;37;44;52;76
2015;18;2015.05.02.;0;0;36;2756855;3870;27155;127720;1600;8;65;67;69;82
2015;17;2015.04.25.;0;0;36;2726480;3797;27370;118692;1705;2;50;55;65;84
2015;16;2015.04.18.;0;0;53;1860415;4725;22095;139425;1455;25;56;57;81;86
2015;15;2015.04.11.;0;0;75;1279280;6592;15410;175066;1130;21;23;29;46;48
2015;14;2015.04.04.;0;0;47;2116875;5244;20090;147278;1390;2;33;38;70;77
2015;13;2015.03.28.;0;0;34;2727040;4573;21470;132409;1540;6;18;35;74;90
2015;12;2015.03.21.;0;0;56;1620735;4613;20830;129754;1440;18;31;36;52;59
2015;11;2015.03.14.;0;0;56;1738025;5030;20490;147747;1355;11;41;42;45;77
2015;10;2015.03.07.;0;0;46;1845210;6190;14520;167385;1045;13;17;19;46;60
2015;9;2015.02.28.;0;0;49;1578995;5018;16325;140271;1135;18;19;22;62;67
2015;8;2015.02.21.;0;0;22;3376465;2923;26910;99358;1540;1;45;64;73;86
2015;7;2015.02.14.;0;0;34;2327085;3149;26605;96715;1685;18;31;46;49;85
2015;6;2015.02.07.;0;0;75;921545;5074;14425;121485;1170;18;27;52;57;73
2015;5;2015.01.31.;0;0;43;1544615;3970;17715;106323;1285;27;35;42;55;71
2015;4;2015.01.24.;0;0;24;2851625;3105;23340;102267;1380;3;50;55;57;58
2015;3;2015.01.17.;0;0;28;2496165;2951;25080;91268;1575;63;68;69;75;86
2015;2;2015.01.10.;0;0;135;460425;8683;7580;164999;775;5;19;23;25;67
2015;1;2015.01.03.;0;0;10;6127020;1881;34490;65981;1910;46;54;55;70;85
2014;52;2014.12.27.;0;0;29;1988390;3275;18645;97256;1220;10;11;29;35;48
2014;51;2014.12.20.;0;0;26;2326960;2901;22080;98340;1340;6;7;40;57;67
2014;50;2014.12.13.;0;0;30;2015140;3236;19780;120714;1030;3;4;55;56;69
2014;49;2014.12.06.;0;0;183;321410;8435;7385;154649;785;7;19;23;44;66
2014;48;2014.11.29.;0;0;44;1277295;2812;21160;75936;1525;37;45;59;65;76
2014;47;2014.11.22.;0;0;91;618250;4139;14390;90485;1280;25;38;43;57;72
2014;46;2014.11.15.;0;0;49;1167555;3912;15485;103212;1140;9;19;57;61;62
2014;45;2014.11.08.;0;0;14;3960320;1964;29890;63537;1795;14;30;51;62;78
2014;44;2014.11.01.;0;0;19;2593950;1968;26515;55876;1815;37;62;66;85;90
2014;43;2014.10.25.;0;0;47;1101905;3055;17950;79286;1345;27;49;72;79;81
2014;42;2014.10.18.;0;0;23;2374635;2388;24215;77794;1445;10;17;61;63;73
2014;41;2014.10.11.;0;0;21;2647925;2262;26030;73096;1565;4;31;38;75;89
2014;40;2014.10.04.;0;0;43;1241620;4009;14100;102739;1070;8;14;19;30;34
2014;39;2014.09.27.;0;0;25;2101530;3393;16395;83169;1300;27;32;36;39;57
2014;38;2014.09.20.;0;0;100;529215;5748;9750;116451;935;2;7;12;25;76
2014;37;2014.09.13.;0;0;22;2428080;2394;23625;76973;1430;7;39;40;58;68
2014;36;2014.09.06.;1;387392635;70;793275;4717;12465;104031;1100;3;16;27;45;81
2014;35;2014.08.30.;0;0;21;2599165;3000;19265;90999;1310;19;53;60;66;67
2014;34;2014.08.23.;0;0;37;1444205;3044;18585;77213;1425;24;36;63;70;84
2014;33;2014.08.16.;0;0;24;2332290;2632;22520;77170;1495;6;52;57;68;86
2014;32;2014.08.09.;1;97974140;43;1291130;2713;21670;75043;1525;20;28;47;51;71
2014;31;2014.08.02.;1;192866270;16;3443595;1707;34175;61199;1855;23;60;76;84;86
2014;30;2014.07.26.;0;0;46;1178115;3991;14380;98165;1135;6;15;22;33;44
2014;29;2014.07.19.;1;2049176095;182;417300;9571;8400;180194;870;13;21;44;47;52
2014;28;2014.07.12.;0;0;51;1500895;4999;16215;125770;1255;13;47;68;70;86
2014;27;2014.07.05.;0;0;16;4341245;2466;29825;86073;1660;45;52;59;69;81
2014;26;2014.06.28.;0;0;41;1637025;3481;20415;100099;1380;12;26;65;66;83
2014;25;2014.06.21.;0;0;38;1766980;3909;18190;114356;1210;3;35;37;43;52
2014;24;2014.06.14.;0;0;86;839870;6612;11565;146558;1015;1;11;19;31;37
2014;23;2014.06.07.;0;0;30;2185270;3366;20620;107450;1255;2;3;32;59;73
2014;22;2014.05.31.;0;0;34;1861765;3310;20250;95982;1360;16;27;45;53;70
2014;21;2014.05.24.;0;0;23;2656565;2279;28390;66919;1880;30;55;59;71;80
2014;20;2014.05.17.;0;0;36;1784205;3177;21405;97164;1360;2;27;28;32;90
2014;19;2014.05.10.;0;0;38;1625590;4235;15445;99919;1275;12;38;45;66;76
2014;18;2014.05.03.;0;0;115;511905;7611;8190;150973;805;4;7;19;58;63
2014;17;2014.04.26.;0;0;39;1553935;3201;20045;90415;1380;11;16;39;49;74
2014;16;2014.04.19.;0;0;19;3358825;2278;29665;75707;1735;29;40;46;72;90
2014;15;2014.04.12.;0;0;61;997505;4127;15610;102077;1225;5;20;22;49;70
2014;14;2014.04.05.;0;0;37;1571065;3672;16760;96333;1240;4;20;28;40;53
2014;13;2014.03.29.;0;0;27;2117515;2992;20235;90296;1525;19;20;30;43;65
2014;12;2014.03.22.;0;0;14;4096490;2018;30090;79691;1480;23;26;27;86;87
2014;11;2014.03.15.;1;3054187380;76;1237115;5276;18870;145265;1335;5;10;54;59;80
2014;10;2014.03.08.;0;0;91;1022810;6348;15525;152010;1260;3;26;31;46;66
2014;9;2014.03.01.;0;0;37;2378085;4544;20505;133927;1355;3;59;63;66;84
2014;8;2014.02.22.;0;0;27;3240680;3044;30435;95853;1880;40;44;62;75;84
2014;7;2014.02.15.;0;0;95;947880;6194;15395;149779;1240;2;10;39;44;68
2014;6;2014.02.08.;0;0;67;1316505;4975;18775;134377;1350;15;39;42;52;55
2014;5;2014.02.01.;0;0;40;1973875;4161;20090;115343;1410;23;32;37;62;79
2014;4;2014.01.25.;0;0;43;1767310;4056;19840;129862;1205;15;18;19;29;39
2014;3;2014.01.18.;0;0;43;1707190;4104;18940;106783;1510;38;43;48;57;74
2014;2;2014.01.11.;0;0;47;1418035;3198;22065;96564;1420;1;12;42;71;85
2014;1;2014.01.04.;0;0;19;3498315;3195;22030;96986;1410;24;42;46;47;81
2013;52;2013.12.28.;0;0;104;589840;5523;11760;116449;1085;8;14;24;32;54
2013;51;2013.12.21.;0;0;64;1008920;4777;14310;106543;1250;5;15;38;51;76
2013;50;2013.12.14.;0;0;30;2239455;2263;31435;72227;1915;43;50;66;78;80